Time,TemperatureF,DewpointF,PressureIn,WindDirection,WindDirectionDegrees,WindSpeedMPH,WindSpeedGustMPH,Humidity,HourlyPrecipIn,Conditions,Clouds,dailyrainin,SolarRadiationWatts/m^2,SoftwareType,DateUTC
2013-02-23 00:21:00,26.0,25.0,-100.00,WNW,287,14.0,23.0,94,0.00,,,0.12,1.000000,,2013-02-23 08:21:00,
2013-02-23 00:31:00,26.0,25.0,-100.00,WNW,287,14.0,23.0,94,0.00,,,0.12,1.000000,,2013-02-23 08:31:00,
2013-02-23 00:41:00,26.0,25.0,-100.00,WNW,287,14.0,23.0,94,0.00,,,0.12,1.000000,,2013-02-23 08:41:00,
2013-02-23 00:52:00,26.0,25.0,-100.00,WNW,287,14.0,23.0,94,0.00,,,0.12,1.000000,,2013-02-23 08:52:00,
2013-02-23 01:11:00,25.0,23.0,-100.00,West,278,4.0,22.0,93,0.00,,,0.12,1.000000,,2013-02-23 09:11:00,
2013-02-23 01:21:00,25.0,23.0,-100.00,West,278,4.0,22.0,93,0.00,,,0.12,1.000000,,2013-02-23 09:21:00,
2013-02-23 01:31:00,25.0,23.0,-100.00,West,278,4.0,22.0,93,0.00,,,0.12,1.000000,,2013-02-23 09:31:00,
2013-02-23 01:41:00,25.0,23.0,-100.00,West,278,4.0,22.0,93,0.00,,,0.12,1.000000,,2013-02-23 09:41:00,
2013-02-23 01:51:00,25.0,23.0,-100.00,West,278,4.0,22.0,93,0.00,,,0.12,1.000000,,2013-02-23 09:51:00,
2013-02-23 03:21:00,24.0,23.0,-100.00,WNW,283,8.0,14.0,94,-99.99,,,0.12,1.000000,,2013-02-23 11:21:00,
2013-02-23 03:32:00,24.0,23.0,-100.00,WNW,283,8.0,14.0,94,-99.99,,,0.12,1.000000,,2013-02-23 11:32:00,
2013-02-23 03:41:00,24.0,23.0,-100.00,WNW,283,8.0,14.0,94,-99.99,,,0.12,1.000000,,2013-02-23 11:41:00,
2013-02-23 03:52:00,24.0,23.0,-100.00,WNW,283,8.0,14.0,94,-99.99,,,0.12,1.000000,,2013-02-23 11:52:00,
2013-02-23 04:21:00,23.0,21.0,-100.00,West,263,11.0,16.0,93,0.00,,,0.12,1.000000,,2013-02-23 12:21:00,
2013-02-23 04:32:00,23.0,21.0,-100.00,West,263,11.0,16.0,93,0.00,,,0.12,1.000000,,2013-02-23 12:32:00,
2013-02-23 04:42:00,23.0,21.0,-100.00,West,263,11.0,16.0,93,0.00,,,0.12,1.000000,,2013-02-23 12:42:00,
2013-02-23 04:52:00,23.0,21.0,-100.00,West,263,11.0,16.0,93,0.00,,,0.12,1.000000,,2013-02-23 12:52:00,
2013-02-23 06:21:00,20.0,18.0,-100.00,East,101,3.0,16.0,92,-99.99,,,0.12,1.000000,,2013-02-23 14:21:00,
2013-02-23 06:32:00,20.0,18.0,-100.00,East,101,3.0,16.0,92,-99.99,,,0.12,1.000000,,2013-02-23 14:32:00,
2013-02-23 06:41:00,20.0,18.0,-100.00,East,101,3.0,16.0,92,-99.99,,,0.12,1.000000,,2013-02-23 14:41:00,
2013-02-23 06:52:00,20.0,18.0,-100.00,East,101,3.0,16.0,92,-99.99,,,0.12,1.000000,,2013-02-23 14:52:00,
2013-02-23 07:21:00,23.0,20.0,-100.00,WNW,288,11.0,21.0,87,0.00,,,0.12,2.000000,,2013-02-23 15:21:00,
2013-02-23 07:31:00,23.0,20.0,-100.00,WNW,288,11.0,21.0,87,0.00,,,0.12,2.000000,,2013-02-23 15:31:00,
2013-02-23 07:41:00,23.0,20.0,-100.00,WNW,288,11.0,21.0,87,0.00,,,0.12,2.000000,,2013-02-23 15:41:00,
2013-02-23 07:51:00,23.0,20.0,-100.00,WNW,288,11.0,21.0,87,0.00,,,0.12,2.000000,,2013-02-23 15:51:00,
2013-02-23 08:21:00,25.0,22.0,-100.00,West,272,11.0,18.0,87,0.00,,,-99.99,54.000000,,2013-02-23 16:21:00,
2013-02-23 08:31:00,25.0,22.0,-100.00,West,272,11.0,18.0,87,0.00,,,-99.99,54.000000,,2013-02-23 16:31:00,
2013-02-23 08:42:00,25.0,22.0,-100.00,West,272,11.0,18.0,87,0.00,,,-99.99,54.000000,,2013-02-23 16:42:00,
2013-02-23 08:51:00,25.0,22.0,-100.00,West,272,11.0,18.0,87,0.00,,,-99.99,54.000000,,2013-02-23 16:51:00,
2013-02-23 09:21:00,29.0,23.0,-100.00,West,281,9.0,15.0,77,0.00,,,0.12,281.000000,,2013-02-23 17:21:00,
2013-02-23 09:31:00,29.0,23.0,-100.00,West,281,9.0,15.0,77,0.00,,,0.12,281.000000,,2013-02-23 17:31:00,
2013-02-23 09:41:00,29.0,23.0,-100.00,West,281,9.0,15.0,77,0.00,,,0.12,281.000000,,2013-02-23 17:41:00,
2013-02-23 09:52:00,29.0,23.0,-100.00,West,281,9.0,15.0,77,0.00,,,0.12,281.000000,,2013-02-23 17:52:00,
2013-02-23 10:21:00,30.0,23.0,-100.00,WSW,249,8.0,13.0,75,0.07,,,0.19,389.000000,,2013-02-23 18:21:00,
2013-02-23 10:31:00,30.0,23.0,-100.00,WSW,249,8.0,13.0,75,0.07,,,0.19,389.000000,,2013-02-23 18:31:00,
2013-02-23 10:41:00,30.0,23.0,-100.00,WSW,249,8.0,13.0,75,0.07,,,0.19,389.000000,,2013-02-23 18:41:00,
2013-02-23 10:51:00,30.0,23.0,-100.00,WSW,249,8.0,13.0,75,0.07,,,0.19,389.000000,,2013-02-23 18:51:00,
2013-02-23 11:21:00,32.0,23.0,-100.00,WNW,290,7.0,15.0,68,0.03,,,0.22,343.000000,,2013-02-23 19:21:00,
2013-02-23 11:32:00,32.0,23.0,-100.00,WNW,290,7.0,15.0,68,0.03,,,0.22,343.000000,,2013-02-23 19:32:00,
2013-02-23 11:41:00,32.0,23.0,-100.00,WNW,290,7.0,15.0,68,0.03,,,0.22,343.000000,,2013-02-23 19:41:00,
2013-02-23 11:51:00,32.0,23.0,-100.00,WNW,290,7.0,15.0,68,0.03,,,0.22,343.000000,,2013-02-23 19:51:00,
2013-02-23 12:21:00,32.0,21.0,-100.00,NNW,331,5.0,19.0,64,0.00,,,-99.99,495.000000,,2013-02-23 20:21:00,
2013-02-23 12:31:00,32.0,21.0,-100.00,NNW,331,5.0,19.0,64,0.00,,,-99.99,495.000000,,2013-02-23 20:31:00,
2013-02-23 12:41:00,32.0,21.0,-100.00,NNW,331,5.0,19.0,64,0.00,,,-99.99,495.000000,,2013-02-23 20:41:00,
2013-02-23 12:52:00,32.0,21.0,-100.00,NNW,331,5.0,19.0,64,0.00,,,-99.99,495.000000,,2013-02-23 20:52:00,
2013-02-23 13:22:00,33.0,21.0,-100.00,WNW,296,8.0,12.0,62,0.00,,,0.22,453.000000,,2013-02-23 21:22:00,
2013-02-23 13:31:00,33.0,21.0,-100.00,WNW,296,8.0,12.0,62,0.00,,,0.22,453.000000,,2013-02-23 21:31:00,
2013-02-23 13:41:00,33.0,21.0,-100.00,WNW,296,8.0,12.0,62,0.00,,,0.22,453.000000,,2013-02-23 21:41:00,
2013-02-23 13:51:00,33.0,21.0,-100.00,WNW,296,8.0,12.0,62,0.00,,,0.22,453.000000,,2013-02-23 21:51:00,
2013-02-23 14:21:00,34.0,22.0,-100.00,WSW,255,6.0,15.0,62,0.00,,,0.22,448.000000,,2013-02-23 22:21:00,
2013-02-23 14:31:00,34.0,22.0,-100.00,WSW,255,6.0,15.0,62,0.00,,,0.22,448.000000,,2013-02-23 22:31:00,
2013-02-23 14:41:00,34.0,22.0,-100.00,WSW,255,6.0,15.0,62,0.00,,,0.22,448.000000,,2013-02-23 22:41:00,
2013-02-23 14:51:00,34.0,22.0,-100.00,WSW,255,6.0,15.0,62,0.00,,,0.22,448.000000,,2013-02-23 22:51:00,
2013-02-23 15:21:00,33.0,21.0,-100.00,WNW,295,7.0,12.0,61,0.00,,,0.22,304.000000,,2013-02-23 23:21:00,
2013-02-23 15:31:00,33.0,21.0,-100.00,WNW,295,7.0,12.0,61,0.00,,,0.22,304.000000,,2013-02-23 23:31:00,
2013-02-23 15:41:00,33.0,21.0,-100.00,WNW,295,7.0,12.0,61,0.00,,,0.22,304.000000,,2013-02-23 23:41:00,
2013-02-23 15:52:00,33.0,21.0,-100.00,WNW,295,7.0,12.0,61,0.00,,,0.22,304.000000,,2013-02-23 23:52:00,
2013-02-23 16:22:00,32.0,22.0,-100.00,West,265,4.0,7.0,65,0.00,,,0.21,234.000000,,2013-02-24 00:22:00,
2013-02-23 16:32:00,32.0,22.0,-100.00,West,265,4.0,7.0,65,0.00,,,0.21,234.000000,,2013-02-24 00:32:00,
2013-02-23 16:42:00,32.0,22.0,-100.00,West,265,4.0,7.0,65,0.00,,,0.21,234.000000,,2013-02-24 00:42:00,
2013-02-23 16:52:00,32.0,22.0,-100.00,West,265,4.0,7.0,65,0.00,,,0.21,234.000000,,2013-02-24 00:52:00,
2013-02-23 17:22:00,30.0,20.0,-100.00,WNW,282,11.0,19.0,65,0.00,,,0.19,208.000000,,2013-02-24 01:22:00,
2013-02-23 17:31:00,30.0,20.0,-100.00,WNW,282,11.0,19.0,65,0.00,,,0.19,208.000000,,2013-02-24 01:31:00,
2013-02-23 17:41:00,30.0,20.0,-100.00,WNW,282,11.0,19.0,65,0.00,,,0.19,208.000000,,2013-02-24 01:41:00,
2013-02-23 17:51:00,30.0,20.0,-100.00,WNW,282,11.0,19.0,65,0.00,,,0.19,208.000000,,2013-02-24 01:51:00,
2013-02-23 18:21:00,27.0,19.0,-100.00,North,356,2.0,13.0,70,0.00,,,0.18,29.000000,,2013-02-24 02:21:00,
2013-02-23 18:32:00,27.0,19.0,-100.00,North,356,2.0,13.0,70,0.00,,,0.18,29.000000,,2013-02-24 02:32:00,
2013-02-23 18:41:00,27.0,19.0,-100.00,North,356,2.0,13.0,70,0.00,,,0.18,29.000000,,2013-02-24 02:41:00,
2013-02-23 18:52:00,27.0,19.0,-100.00,North,356,2.0,13.0,70,0.00,,,0.18,29.000000,,2013-02-24 02:52:00,
2013-02-23 19:21:00,26.0,19.0,-100.00,WNW,294,7.0,12.0,74,0.00,,,0.12,1.000000,,2013-02-24 03:21:00,
2013-02-23 19:31:00,26.0,19.0,-100.00,WNW,294,7.0,12.0,74,0.00,,,0.12,1.000000,,2013-02-24 03:31:00,
2013-02-23 19:42:00,26.0,19.0,-100.00,WNW,294,7.0,12.0,74,0.00,,,0.12,1.000000,,2013-02-24 03:42:00,
2013-02-23 19:52:00,26.0,19.0,-100.00,WNW,294,7.0,12.0,74,0.00,,,0.12,1.000000,,2013-02-24 03:52:00,
2013-02-23 20:21:00,24.0,17.0,-100.00,WSW,237,3.0,9.0,75,0.00,,,0.11,1.000000,,2013-02-24 04:21:00,
2013-02-23 20:31:00,24.0,17.0,-100.00,WSW,237,3.0,9.0,75,0.00,,,0.11,1.000000,,2013-02-24 04:31:00,
2013-02-23 20:41:00,24.0,17.0,-100.00,WSW,237,3.0,9.0,75,0.00,,,0.11,1.000000,,2013-02-24 04:41:00,
2013-02-23 20:51:00,24.0,17.0,-100.00,WSW,237,3.0,9.0,75,0.00,,,0.11,1.000000,,2013-02-24 04:51:00,
2013-02-23 21:21:00,24.0,18.0,-100.00,WNW,288,6.0,10.0,78,0.00,,,0.10,1.000000,,2013-02-24 05:21:00,
2013-02-23 21:32:00,24.0,18.0,-100.00,WNW,288,6.0,10.0,78,0.00,,,0.10,1.000000,,2013-02-24 05:32:00,
2013-02-23 21:42:00,24.0,18.0,-100.00,WNW,288,6.0,10.0,78,0.00,,,0.10,1.000000,,2013-02-24 05:42:00,
2013-02-23 21:52:00,24.0,18.0,-100.00,WNW,288,6.0,10.0,78,0.00,,,0.10,1.000000,,2013-02-24 05:52:00,
2013-02-23 22:21:00,22.0,18.0,-100.00,ENE,68,2.0,9.0,83,0.00,,,-99.99,1.000000,,2013-02-24 06:21:00,
2013-02-23 22:31:00,22.0,18.0,-100.00,ENE,68,2.0,9.0,83,0.00,,,-99.99,1.000000,,2013-02-24 06:31:00,
2013-02-23 22:41:00,22.0,18.0,-100.00,ENE,68,2.0,9.0,83,0.00,,,-99.99,1.000000,,2013-02-24 06:41:00,
2013-02-23 22:52:00,22.0,18.0,-100.00,ENE,68,2.0,9.0,83,0.00,,,-99.99,1.000000,,2013-02-24 06:52:00,
2013-02-23 23:21:00,22.0,16.0,-100.00,ENE,62,3.0,6.0,79,0.00,,,0.10,1.000000,,2013-02-24 07:21:00,
2013-02-23 23:31:00,22.0,16.0,-100.00,ENE,62,3.0,6.0,79,0.00,,,0.10,1.000000,,2013-02-24 07:31:00,
2013-02-23 23:41:00,22.0,16.0,-100.00,ENE,62,3.0,6.0,79,0.00,,,0.10,1.000000,,2013-02-24 07:41:00,
2013-02-23 23:51:00,22.0,16.0,-100.00,ENE,62,3.0,6.0,79,0.00,,,0.10,1.000000,,2013-02-24 07:51:00,